| time (UTC) | temp F | wind direction | speed MPH | gust MPH | rain 1hr in | rain 24hr in | rain mn in | humidity % | barometer mb |
| 20260507064007 | 43 | 251 | 0.0 | 3.0 | 0.00 | 0.00 | 0.00 | 72 | 1013.7 |
| 20260507063511 | 43 | 250 | 1.0 | 4.0 | 0.00 | 0.00 | 0.00 | 73 | 1013.8 |
| 20260507063024 | 42 | 259 | 2.0 | 4.0 | 0.00 | 0.00 | 0.00 | 73 | 1013.9 |
| 20260507062510 | 42 | 246 | 1.0 | 4.0 | 0.00 | 0.00 | 0.00 | 75 | 1013.9 |
| 20260507062004 | 42 | 232 | 0.0 | 2.0 | 0.00 | 0.00 | 0.00 | 75 | 1013.9 |
| 20260507061505 | 41 | 232 | 1.0 | 3.0 | 0.00 | 0.00 | 0.00 | 76 | 1013.9 |
| 20260507061007 | 41 | 232 | 1.0 | 3.0 | 0.00 | 0.00 | 0.00 | 76 | 1014.0 |
| 20260507060502 | 41 | 235 | 0.0 | 3.0 | 0.00 | 0.00 | 0.00 | 77 | 1014.0 |
| 20260507060012 | 41 | 259 | 0.0 | 0.0 | 0.00 | 0.00 | 0.00 | 77 | 1013.9 |
| 20260507055504 | 41 | 259 | 0.0 | 0.0 | 0.00 | 0.00 | 0.00 | 77 | 1014.0 |
| 20260507055004 | 41 | 259 | 0.0 | 0.0 | 0.00 | 0.00 | 0.00 | 77 | 1014.0 |
| 20260507054516 | 41 | 259 | 0.0 | 0.0 | 0.00 | 0.00 | 0.00 | 78 | 1013.8 |
| 20260507054007 | 41 | 260 | 0.0 | 0.0 | 0.00 | 0.00 | 0.00 | 77 | 1013.8 |
| 20260507053509 | 41 | 259 | 0.0 | 0.0 | 0.00 | 0.00 | 0.00 | 77 | 1014.0 |
| 20260507053023 | 42 | 260 | 0.0 | 0.0 | 0.00 | 0.00 | 0.00 | 76 | 1014.0 |
| 20260507052508 | 42 | 259 | 0.0 | 0.0 | 0.00 | 0.00 | 0.00 | 76 | 1014.0 |
| 20260507052012 | 42 | 259 | 0.0 | 0.0 | 0.00 | 0.00 | 0.00 | 75 | 1014.0 |
| 20260507051525 | 42 | 259 | 0.0 | 0.0 | 0.00 | 0.00 | 0.00 | 74 | 1014.0 |
| 20260507051010 | 43 | 259 | 0.0 | 0.0 | 0.00 | 0.00 | 0.00 | 74 | 1013.9 |
| 20260507050503 | 43 | 259 | 0.0 | 0.0 | 0.00 | 0.00 | 0.00 | 73 | 1013.9 |
| 20260507050012 | 43 | 259 | 0.0 | 0.0 | 0.00 | 0.00 | 0.00 | 73 | 1013.9 |
| 20260507045503 | 44 | 259 | 0.0 | 0.0 | 0.00 | 0.00 | 0.00 | 73 | 1013.9 |
| 20260507045006 | 44 | 259 | 0.0 | 0.0 | 0.00 | 0.00 | 0.00 | 73 | 1013.9 |
| 20260507044527 | 44 | 259 | 0.0 | 0.0 | 0.00 | 0.00 | 0.00 | 72 | 1013.9 |
| 20260507044008 | 45 | 259 | 0.0 | 0.0 | 0.00 | 0.00 | 0.00 | 73 | 1013.9 |
| 20260507043506 | 45 | 259 | 0.0 | 0.0 | 0.00 | 0.00 | 0.00 | 72 | 1013.9 |
| 20260507043018 | 45 | 259 | 0.0 | 0.0 | 0.00 | 0.00 | 0.00 | 72 | 1013.9 |
| 20260507042507 | 45 | 259 | 0.0 | 0.0 | 0.00 | 0.00 | 0.00 | 70 | 1013.9 |
| 20260507042009 | 45 | 259 | 0.0 | 0.0 | 0.00 | 0.00 | 0.00 | 70 | 1014.0 |
| 20260507041523 | 46 | 259 | 0.0 | 0.0 | 0.00 | 0.00 | 0.00 | 70 | 1014.0 |
| 20260507041007 | 46 | 259 | 0.0 | 1.0 | 0.00 | 0.00 | 0.00 | 70 | 1013.9 |
| 20260507040511 | 46 | 259 | 0.0 | 1.0 | 0.00 | 0.00 | 0.00 | 70 | 1014.0 |
| 20260507040032 | 46 | 260 | 0.0 | 0.0 | 0.00 | 0.00 | 0.00 | 70 | 1014.0 |
| 20260507035510 | 46 | 259 | 0.0 | 0.0 | 0.00 | 0.00 | 0.00 | 70 | 1014.0 |
| 20260507035005 | 46 | 259 | 0.0 | 0.0 | 0.00 | 0.00 | 0.00 | 69 | 1014.1 |
| 20260507034510 | 46 | 259 | 0.0 | 0.0 | 0.00 | 0.00 | 0.00 | 68 | 1014.1 |
| 20260507034003 | 46 | 259 | 0.0 | 0.0 | 0.00 | 0.00 | 0.00 | 68 | 1014.0 |
| 20260507033505 | 46 | 259 | 0.0 | 0.0 | 0.00 | 0.00 | 0.00 | 67 | 1014.0 |
| 20260507033018 | 47 | 259 | 0.0 | 0.0 | 0.00 | 0.00 | 0.00 | 66 | 1014.0 |
| 20260507032504 | 47 | 259 | 0.0 | 0.0 | 0.00 | 0.00 | 0.00 | 66 | 1014.0 |
| 20260507032010 | 47 | 259 | 0.0 | 0.0 | 0.00 | 0.00 | 0.00 | 65 | 1014.1 |
| 20260507031522 | 47 | 259 | 0.0 | 0.0 | 0.00 | 0.00 | 0.00 | 65 | 1014.1 |
| 20260507031010 | 47 | 259 | 0.0 | 0.0 | 0.00 | 0.00 | 0.00 | 64 | 1014.2 |
| 20260507030509 | 47 | 259 | 0.0 | 0.0 | 0.00 | 0.00 | 0.00 | 63 | 1014.2 |
| 20260507030023 | 47 | 259 | 0.0 | 0.0 | 0.00 | 0.00 | 0.00 | 63 | 1014.2 |
| 20260507025506 | 47 | 259 | 0.0 | 0.0 | 0.00 | 0.00 | 0.00 | 61 | 1014.1 |
| 20260507025011 | 47 | 259 | 0.0 | 0.0 | 0.00 | 0.00 | 0.00 | 60 | 1014.1 |
| 20260507024529 | 47 | 259 | 0.0 | 0.0 | 0.00 | 0.00 | 0.00 | 56 | 1014.1 |
| 20260507024009 | 48 | 260 | 0.0 | 0.0 | 0.00 | 0.00 | 0.00 | 56 | 1014.2 |
| 20260507023505 | 48 | 259 | 0.0 | 0.0 | 0.00 | 0.00 | 0.00 | 57 | 1014.2 |
| 20260507023015 | 48 | 259 | 0.0 | 0.0 | 0.00 | 0.00 | 0.00 | 56 | 1014.2 |
| 20260507022504 | 48 | 259 | 0.0 | 0.0 | 0.00 | 0.00 | 0.00 | 56 | 1014.1 |
| 20260507022009 | 48 | 259 | 0.0 | 0.0 | 0.00 | 0.00 | 0.00 | 55 | 1014.2 |
| 20260507021522 | 48 | 259 | 0.0 | 0.0 | 0.00 | 0.00 | 0.00 | 55 | 1014.1 |
| 20260507021009 | 49 | 260 | 0.0 | 1.0 | 0.00 | 0.00 | 0.00 | 54 | 1014.2 |
| 20260507020508 | 49 | 259 | 0.0 | 2.0 | 0.00 | 0.00 | 0.00 | 54 | 1014.0 |
| 20260507020030 | 49 | 259 | 0.0 | 2.0 | 0.00 | 0.00 | 0.00 | 53 | 1014.1 |
| 20260507015508 | 49 | 259 | 0.0 | 2.0 | 0.00 | 0.00 | 0.00 | 53 | 1013.9 |
| 20260507015011 | 49 | 259 | 0.0 | 2.0 | 0.00 | 0.00 | 0.00 | 53 | 1013.9 |
| 20260507014529 | 49 | 259 | 0.0 | 3.0 | 0.00 | 0.00 | 0.00 | 52 | 1013.9 |
| 20260507014014 | 49 | 259 | 1.0 | 3.0 | 0.00 | 0.00 | 0.00 | 51 | 1013.9 |
| 20260507013510 | 49 | 259 | 0.0 | 3.0 | 0.00 | 0.00 | 0.00 | 51 | 1013.9 |
| 20260507013030 | 49 | 259 | 1.0 | 4.0 | 0.00 | 0.00 | 0.00 | 50 | 1013.9 |
| 20260507012509 | 49 | 248 | 1.0 | 4.0 | 0.00 | 0.00 | 0.00 | 49 | 1013.9 |
| 20260507012004 | 49 | 273 | 1.0 | 3.0 | 0.00 | 0.00 | 0.00 | 50 | 1013.8 |
| 20260507011520 | 49 | 259 | 0.0 | 4.0 | 0.00 | 0.00 | 0.00 | 49 | 1013.8 |
| 20260507011010 | 49 | 286 | 1.0 | 4.0 | 0.00 | 0.00 | 0.00 | 49 | 1013.7 |
| 20260507010507 | 50 | 279 | 0.0 | 3.0 | 0.00 | 0.00 | 0.00 | 49 | 1013.7 |
| 20260507010027 | 50 | 289 | 1.0 | 3.0 | 0.00 | 0.00 | 0.00 | 49 | 1013.6 |
| 20260507005509 | 50 | 277 | 1.0 | 4.0 | 0.00 | 0.00 | 0.00 | 48 | 1013.6 |
| 20260507005009 | 50 | 292 | 0.0 | 4.0 | 0.00 | 0.00 | 0.00 | 48 | 1013.6 |
| 20260507004530 | 50 | 270 | 1.0 | 7.0 | 0.00 | 0.00 | 0.00 | 47 | 1013.6 |
| 20260507004010 | 50 | 256 | 3.0 | 7.0 | 0.00 | 0.00 | 0.00 | 48 | 1013.7 |
| 20260507003508 | 50 | 277 | 1.0 | 5.0 | 0.00 | 0.00 | 0.00 | 47 | 1013.6 |
| 20260507003029 | 50 | 242 | 1.0 | 4.0 | 0.00 | 0.00 | 0.00 | 47 | 1013.6 |
| 20260507002512 | 50 | 292 | 1.0 | 6.0 | 0.00 | 0.00 | 0.00 | 47 | 1013.6 |
| 20260507002014 | 51 | 267 | 2.0 | 6.0 | 0.00 | 0.00 | 0.00 | 46 | 1013.5 |
| 20260507001535 | 51 | 272 | 1.0 | 10.0 | 0.00 | 0.00 | 0.00 | 45 | 1013.5 |
| 20260507001007 | 51 | 254 | 3.0 | 10.0 | 0.00 | 0.00 | 0.00 | 45 | 1013.5 |
| 20260507000506 | 51 | 280 | 2.0 | 6.0 | 0.00 | 0.00 | 0.00 | 46 | 1013.4 |
| 20260507000019 | 51 | 263 | 0.0 | 3.0 | 0.00 | 0.00 | 0.00 | 46 | 1013.4 |
| 20260506235507 | 51 | 265 | 1.0 | 4.0 | 0.00 | 0.00 | 0.00 | 45 | 1013.3 |
| 20260506235008 | 51 | 265 | 0.0 | 6.0 | 0.00 | 0.00 | 0.00 | 45 | 1013.3 |
| 20260506234524 | 51 | 258 | 2.0 | 6.0 | 0.00 | 0.00 | 0.00 | 44 | 1013.4 |
| 20260506234009 | 51 | 249 | 3.0 | 6.0 | 0.00 | 0.00 | 0.00 | 43 | 1013.4 |
| 20260506233510 | 51 | 281 | 1.0 | 4.0 | 0.00 | 0.00 | 0.00 | 45 | 1013.5 |
| 20260506233029 | 51 | 290 | 1.0 | 8.0 | 0.00 | 0.00 | 0.00 | 44 | 1013.5 |
| 20260506232511 | 51 | 259 | 2.0 | 9.0 | 0.00 | 0.00 | 0.00 | 45 | 1013.5 |
| 20260506232011 | 51 | 286 | 3.0 | 9.0 | 0.00 | 0.00 | 0.00 | 42 | 1013.5 |
| 20260506231529 | 51 | 267 | 3.0 | 8.0 | 0.00 | 0.00 | 0.00 | 42 | 1013.5 |
| 20260506231011 | 51 | 265 | 3.0 | 11.0 | 0.00 | 0.00 | 0.00 | 42 | 1013.5 |
| 20260506230509 | 52 | 253 | 4.0 | 14.0 | 0.00 | 0.00 | 0.00 | 42 | 1013.4 |
| 20260506230032 | 52 | 274 | 7.0 | 14.0 | 0.00 | 0.00 | 0.00 | 41 | 1013.4 |
| 20260506225507 | 52 | 264 | 4.0 | 14.0 | 0.00 | 0.00 | 0.00 | 43 | 1013.4 |
| 20260506225007 | 52 | 244 | 4.0 | 15.0 | 0.00 | 0.00 | 0.00 | 41 | 1013.3 |
| 20260506224524 | 52 | 285 | 8.0 | 15.0 | 0.00 | 0.00 | 0.00 | 40 | 1013.4 |
| 20260506224007 | 52 | 245 | 7.0 | 14.0 | 0.00 | 0.00 | 0.00 | 41 | 1013.4 |
| 20260506223508 | 52 | 255 | 7.0 | 14.0 | 0.00 | 0.00 | 0.00 | 40 | 1013.4 |
| 20260506223026 | 52 | 270 | 5.0 | 14.0 | 0.00 | 0.00 | 0.00 | 43 | 1013.5 |
| 20260506222511 | 52 | 255 | 6.0 | 14.0 | 0.00 | 0.00 | 0.00 | 42 | 1013.4 |
| 20260506222009 | 52 | 250 | 6.0 | 11.0 | 0.00 | 0.00 | 0.00 | 41 | 1013.5 |
| 20260506221528 | 52 | 291 | 5.0 | 13.0 | 0.00 | 0.00 | 0.00 | 41 | 1013.3 |
| 20260506221009 | 52 | 317 | 6.0 | 14.0 | 0.00 | 0.00 | 0.00 | 41 | 1013.3 |
| 20260506220511 | 52 | 315 | 6.0 | 14.0 | 0.00 | 0.00 | 0.00 | 40 | 1013.2 |
| 20260506220034 | 52 | 296 | 9.0 | 15.0 | 0.00 | 0.00 | 0.00 | 40 | 1013.2 |
| 20260506215507 | 52 | 238 | 6.0 | 15.0 | 0.00 | 0.00 | 0.00 | 41 | 1013.2 |
| 20260506215009 | 53 | 313 | 7.0 | 14.0 | 0.00 | 0.00 | 0.00 | 41 | 1013.3 |
| 20260506214522 | 53 | 287 | 8.0 | 15.0 | 0.00 | 0.00 | 0.00 | 41 | 1013.3 |
| 20260506214010 | 53 | 294 | 8.0 | 16.0 | 0.00 | 0.00 | 0.00 | 41 | 1013.3 |
| 20260506213511 | 53 | 260 | 7.0 | 16.0 | 0.00 | 0.00 | 0.00 | 42 | 1013.3 |
| 20260506213023 | 53 | 294 | 8.0 | 13.0 | 0.00 | 0.00 | 0.00 | 40 | 1013.2 |
| 20260506212508 | 53 | 282 | 6.0 | 12.0 | 0.00 | 0.00 | 0.00 | 41 | 1013.2 |
| 20260506212016 | 53 | 264 | 6.0 | 16.0 | 0.00 | 0.00 | 0.00 | 42 | 1013.2 |
| 20260506211525 | 53 | 238 | 7.0 | 16.0 | 0.00 | 0.00 | 0.00 | 41 | 1013.2 |
| 20260506211010 | 53 | 307 | 8.0 | 15.0 | 0.00 | 0.00 | 0.00 | 40 | 1013.1 |
| 20260506210510 | 54 | 292 | 8.0 | 17.0 | 0.00 | 0.00 | 0.00 | 41 | 1013.1 |
| 20260506210028 | 54 | 244 | 6.0 | 17.0 | 0.00 | 0.00 | 0.00 | 40 | 1013.1 |
| 20260506205509 | 54 | 232 | 6.0 | 15.0 | 0.00 | 0.00 | 0.00 | 42 | 1013.1 |
| 20260506205012 | 54 | 274 | 6.0 | 17.0 | 0.00 | 0.00 | 0.00 | 41 | 1013.1 |
| 20260506204520 | 54 | 277 | 8.0 | 17.0 | 0.00 | 0.00 | 0.00 | 40 | 1013.0 |
| 20260506204009 | 54 | 293 | 7.0 | 18.0 | 0.00 | 0.00 | 0.00 | 42 | 1013.0 |
| 20260506203508 | 54 | 281 | 8.0 | 18.0 | 0.00 | 0.00 | 0.00 | 42 | 1013.1 |
| 20260506203028 | 54 | 227 | 8.0 | 16.0 | 0.00 | 0.00 | 0.00 | 41 | 1013.0 |
| 20260506202506 | 54 | 298 | 7.0 | 15.0 | 0.00 | 0.00 | 0.00 | 40 | 1013.3 |
| 20260506202014 | 53 | 270 | 4.0 | 13.0 | 0.00 | 0.00 | 0.00 | 43 | 1013.3 |
| 20260506201526 | 53 | 271 | 8.0 | 13.0 | 0.00 | 0.00 | 0.00 | 42 | 1013.3 |
| 20260506201012 | 53 | 276 | 8.0 | 16.0 | 0.00 | 0.00 | 0.00 | 42 | 1013.4 |
| 20260506200513 | 54 | 249 | 4.0 | 16.0 | 0.00 | 0.00 | 0.00 | 40 | 1013.4 |
| 20260506200027 | 55 | 301 | 7.0 | 13.0 | 0.00 | 0.00 | 0.00 | 41 | 1013.4 |
| 20260506195509 | 55 | 280 | 7.0 | 14.0 | 0.00 | 0.00 | 0.00 | 39 | 1013.4 |
| 20260506195010 | 55 | 251 | 8.0 | 14.0 | 0.00 | 0.00 | 0.00 | 40 | 1013.3 |
| 20260506194526 | 54 | 268 | 8.0 | 13.0 | 0.00 | 0.00 | 0.00 | 41 | 1013.3 |
| 20260506194009 | 53 | 263 | 7.0 | 13.0 | 0.00 | 0.00 | 0.00 | 43 | 1013.4 |
| 20260506193507 | 53 | 246 | 7.0 | 14.0 | 0.00 | 0.00 | 0.00 | 39 | 1013.4 |
| 20260506193021 | 53 | 273 | 8.0 | 14.0 | 0.00 | 0.00 | 0.00 | 39 | 1013.5 |
| 20260506192510 | 54 | 236 | 4.0 | 14.0 | 0.00 | 0.00 | 0.00 | 41 | 1013.4 |
| 20260506192011 | 54 | 290 | 9.0 | 14.0 | 0.00 | 0.00 | 0.00 | 42 | 1013.7 |
| 20260506191534 | 54 | 236 | 8.0 | 14.0 | 0.00 | 0.00 | 0.00 | 44 | 1013.6 |
| 20260506191007 | 54 | 309 | 5.0 | 13.0 | 0.00 | 0.00 | 0.00 | 43 | 1013.6 |
| 20260506190509 | 54 | 49 | 6.0 | 13.0 | 0.00 | 0.00 | 0.00 | 41 | 1013.6 |
| 20260506190027 | 53 | 242 | 4.0 | 13.0 | 0.00 | 0.00 | 0.00 | 42 | 1013.5 |
| 20260506185507 | 53 | 275 | 6.0 | 13.0 | 0.00 | 0.00 | 0.00 | 41 | 1013.6 |
| 20260506185003 | 53 | 340 | 7.0 | 12.0 | 0.00 | 0.00 | 0.00 | 42 | 1013.6 |
| 20260506184526 | 53 | 267 | 4.0 | 13.0 | 0.00 | 0.00 | 0.00 | 43 | 1013.7 |
| 20260506184006 | 53 | 265 | 6.0 | 13.0 | 0.00 | 0.00 | 0.00 | 42 | 1013.8 |
| 20260506183508 | 53 | 229 | 6.0 | 13.0 | 0.00 | 0.00 | 0.00 | 40 | 1013.7 |
| 20260506183024 | 52 | 275 | 8.0 | 15.0 | 0.00 | 0.00 | 0.00 | 40 | 1013.7 |
| 20260506182507 | 52 | 276 | 8.0 | 15.0 | 0.00 | 0.00 | 0.00 | 41 | 1013.7 |
| 20260506182007 | 52 | 242 | 8.0 | 15.0 | 0.00 | 0.00 | 0.00 | 40 | 1013.6 |
| 20260506181504 | 53 | 275 | 5.0 | 17.0 | 0.00 | 0.00 | 0.00 | 40 | 1013.5 |
| 20260506181004 | 52 | 297 | 6.0 | 17.0 | 0.00 | 0.00 | 0.00 | 41 | 1013.3 |
| 20260506180504 | 52 | 257 | 6.0 | 11.0 | 0.00 | 0.00 | 0.00 | 41 | 1013.4 |
| 20260506180007 | 52 | 212 | 3.0 | 13.0 | 0.00 | 0.00 | 0.00 | 38 | 1013.4 |
| 20260506175506 | 52 | 287 | 8.0 | 13.0 | 0.00 | 0.00 | 0.00 | 39 | 1013.4 |
| 20260506175002 | 53 | 320 | 5.0 | 11.0 | 0.00 | 0.00 | 0.00 | 39 | 1013.4 |
| 20260506174514 | 53 | 274 | 5.0 | 10.0 | 0.00 | 0.00 | 0.00 | 43 | 1013.5 |
| 20260506174006 | 53 | 244 | 4.0 | 10.0 | 0.00 | 0.00 | 0.00 | 41 | 1013.4 |
| 20260506173505 | 52 | 281 | 6.0 | 13.0 | 0.00 | 0.00 | 0.00 | 41 | 1013.4 |
| 20260506173018 | 52 | 265 | 5.0 | 13.0 | 0.00 | 0.00 | 0.00 | 39 | 1013.5 |
| 20260506172507 | 52 | 286 | 8.0 | 13.0 | 0.00 | 0.00 | 0.00 | 40 | 1013.6 |
| 20260506172009 | 52 | 261 | 3.0 | 10.0 | 0.00 | 0.00 | 0.00 | 42 | 1013.5 |
| 20260506171529 | 52 | 314 | 5.0 | 12.0 | 0.00 | 0.00 | 0.00 | 40 | 1013.5 |
| 20260506171006 | 52 | 293 | 5.0 | 16.0 | 0.00 | 0.00 | 0.00 | 42 | 1013.6 |
| 20260506170509 | 51 | 271 | 8.0 | 16.0 | 0.00 | 0.00 | 0.00 | 42 | 1013.7 |
| 20260506170007 | 51 | 234 | 7.0 | 14.0 | 0.00 | 0.00 | 0.00 | 39 | 1013.6 |
| 20260506165504 | 51 | 286 | 6.0 | 14.0 | 0.00 | 0.00 | 0.00 | 38 | 1013.8 |
| 20260506165003 | 52 | 271 | 5.0 | 13.0 | 0.00 | 0.00 | 0.00 | 39 | 1013.8 |
| 20260506164512 | 51 | 248 | 5.0 | 12.0 | 0.00 | 0.00 | 0.00 | 41 | 1013.8 |
| 20260506164009 | 51 | 264 | 6.0 | 12.0 | 0.00 | 0.00 | 0.00 | 41 | 1013.9 |
| 20260506163512 | 51 | 278 | 6.0 | 11.0 | 0.00 | 0.00 | 0.00 | 40 | 1014.0 |
| 20260506163016 | 50 | 17 | 3.0 | 11.0 | 0.00 | 0.00 | 0.00 | 46 | 1013.9 |
| 20260506162507 | 50 | 289 | 7.0 | 11.0 | 0.00 | 0.00 | 0.00 | 44 | 1013.9 |
| 20260506162013 | 50 | 284 | 4.0 | 11.0 | 0.00 | 0.00 | 0.00 | 44 | 1013.8 |
| 20260506161521 | 50 | 257 | 6.0 | 11.0 | 0.00 | 0.00 | 0.00 | 44 | 1013.9 |
| 20260506161007 | 50 | 308 | 6.0 | 10.0 | 0.00 | 0.00 | 0.00 | 42 | 1013.8 |
| 20260506160509 | 50 | 232 | 5.0 | 10.0 | 0.00 | 0.01 | 0.00 | 44 | 1014.0 |
| 20260506160030 | 49 | 230 | 3.0 | 10.0 | 0.00 | 0.01 | 0.00 | 41 | 1013.8 |
| 20260506155509 | 49 | 332 | 2.0 | 13.0 | 0.00 | 0.01 | 0.00 | 43 | 1013.7 |
| 20260506155010 | 49 | 309 | 6.0 | 13.0 | 0.00 | 0.01 | 0.00 | 41 | 1013.8 |
| 20260506154513 | 50 | 304 | 5.0 | 11.0 | 0.00 | 0.01 | 0.00 | 43 | 1013.7 |
| 20260506154004 | 50 | 303 | 3.0 | 14.0 | 0.00 | 0.01 | 0.00 | 43 | 1013.5 |
| 20260506153505 | 50 | 96 | 5.0 | 14.0 | 0.00 | 0.01 | 0.00 | 42 | 1013.6 |
| 20260506153017 | 50 | 317 | 5.0 | 14.0 | 0.00 | 0.01 | 0.00 | 42 | 1013.7 |
| 20260506152505 | 50 | 317 | 6.0 | 14.0 | 0.00 | 0.01 | 0.00 | 40 | 1013.8 |
| 20260506152005 | 50 | 296 | 8.0 | 17.0 | 0.00 | 0.01 | 0.00 | 40 | 1013.6 |
| 20260506151532 | 50 | 306 | 2.0 | 17.0 | 0.00 | 0.01 | 0.00 | 44 | 1013.5 |
| 20260506151009 | 50 | 285 | 9.0 | 16.0 | 0.00 | 0.01 | 0.00 | 41 | 1013.5 |
| 20260506150507 | 49 | 312 | 3.0 | 11.0 | 0.00 | 0.01 | 0.00 | 45 | 1013.5 |
| 20260506150026 | 49 | 270 | 6.0 | 14.0 | 0.00 | 0.01 | 0.00 | 45 | 1013.5 |
| 20260506145514 | 49 | 327 | 8.0 | 14.0 | 0.00 | 0.01 | 0.00 | 43 | 1013.5 |
| 20260506145010 | 49 | 331 | 3.0 | 13.0 | 0.00 | 0.01 | 0.00 | 44 | 1013.5 |
| 20260506144528 | 49 | 324 | 4.0 | 13.0 | 0.00 | 0.01 | 0.00 | 45 | 1013.4 |
| 20260506144015 | 49 | 301 | 5.0 | 12.0 | 0.00 | 0.01 | 0.00 | 44 | 1013.4 |
| 20260506143508 | 50 | 306 | 5.0 | 12.0 | 0.00 | 0.01 | 0.00 | 44 | 1013.4 |
| 20260506143012 | 50 | 312 | 3.0 | 11.0 | 0.00 | 0.01 | 0.00 | 44 | 1013.3 |
| 20260506142505 | 49 | 276 | 2.0 | 10.0 | 0.00 | 0.01 | 0.00 | 47 | 1013.3 |
| 20260506142008 | 49 | 305 | 6.0 | 12.0 | 0.00 | 0.01 | 0.00 | 45 | 1013.2 |
| 20260506141518 | 48 | 302 | 2.0 | 13.0 | 0.00 | 0.01 | 0.00 | 46 | 1013.1 |
| 20260506141006 | 48 | 315 | 4.0 | 13.0 | 0.00 | 0.01 | 0.00 | 44 | 1013.1 |
| 20260506140507 | 48 | 257 | 6.0 | 11.0 | 0.00 | 0.01 | 0.00 | 43 | 1013.1 |
| 20260506140027 | 48 | 281 | 3.0 | 13.0 | 0.00 | 0.01 | 0.00 | 45 | 1013.2 |
| 20260506135507 | 48 | 289 | 8.0 | 14.0 | 0.00 | 0.01 | 0.00 | 42 | 1013.0 |
| 20260506135009 | 49 | 334 | 6.0 | 15.0 | 0.00 | 0.01 | 0.00 | 42 | 1012.9 |
| 20260506134526 | 48 | 339 | 3.0 | 15.0 | 0.00 | 0.01 | 0.00 | 46 | 1012.7 |
| 20260506134014 | 48 | 290 | 8.0 | 14.0 | 0.00 | 0.01 | 0.00 | 44 | 1012.7 |
| 20260506133511 | 48 | 9 | 7.0 | 15.0 | 0.00 | 0.01 | 0.00 | 45 | 1012.7 |
| 20260506133041 | 48 | 328 | 4.0 | 15.0 | 0.00 | 0.01 | 0.00 | 48 | 1012.5 |
| 20260506132510 | 47 | 250 | 3.0 | 12.0 | 0.00 | 0.01 | 0.00 | 49 | 1012.5 |
| 20260506132007 | 47 | 297 | 5.0 | 12.0 | 0.00 | 0.01 | 0.00 | 50 | 1012.4 |
| 20260506131517 | 46 | 336 | 7.0 | 11.0 | 0.00 | 0.01 | 0.00 | 51 | 1012.5 |
| 20260506131006 | 46 | 309 | 6.0 | 12.0 | 0.00 | 0.01 | 0.00 | 50 | 1012.5 |
| 20260506130506 | 46 | 311 | 5.0 | 12.0 | 0.00 | 0.01 | 0.00 | 51 | 1012.5 |
| 20260506130020 | 46 | 321 | 5.0 | 13.0 | 0.00 | 0.01 | 0.00 | 52 | 1012.7 |
| 20260506125505 | 46 | 284 | 4.0 | 13.0 | 0.00 | 0.01 | 0.00 | 53 | 1012.6 |
| 20260506125007 | 46 | 273 | 4.0 | 11.0 | 0.00 | 0.01 | 0.00 | 54 | 1012.6 |
| 20260506124524 | 45 | 329 | 6.0 | 10.0 | 0.00 | 0.01 | 0.00 | 55 | 1012.5 |
| 20260506124010 | 45 | 301 | 5.0 | 10.0 | 0.00 | 0.01 | 0.00 | 55 | 1012.4 |
| 20260506123511 | 45 | 313 | 4.0 | 9.0 | 0.00 | 0.01 | 0.00 | 55 | 1012.4 |
| 20260506123028 | 45 | 328 | 3.0 | 9.0 | 0.00 | 0.01 | 0.00 | 56 | 1012.2 |
| 20260506122507 | 44 | 5 | 4.0 | 10.0 | 0.00 | 0.01 | 0.00 | 57 | 1012.2 |
| 20260506122011 | 44 | 299 | 2.0 | 10.0 | 0.00 | 0.01 | 0.00 | 60 | 1012.1 |
| 20260506121530 | 44 | 309 | 3.0 | 8.0 | 0.00 | 0.01 | 0.00 | 59 | 1012.1 |
| 20260506121012 | 44 | 322 | 4.0 | 8.0 | 0.00 | 0.01 | 0.00 | 59 | 1012.0 |
| 20260506120507 | 43 | 350 | 3.0 | 8.0 | 0.00 | 0.01 | 0.00 | 61 | 1011.8 |
| 20260506120034 | 43 | 313 | 3.0 | 8.0 | 0.00 | 0.01 | 0.00 | 62 | 1011.9 |
| 20260506115507 | 43 | 314 | 3.0 | 7.0 | 0.00 | 0.01 | 0.00 | 63 | 1011.8 |
| 20260506115006 | 42 | 286 | 3.0 | 8.0 | 0.00 | 0.01 | 0.00 | 64 | 1011.6 |
| 20260506114521 | 42 | 313 | 4.0 | 8.0 | 0.00 | 0.01 | 0.00 | 64 | 1011.6 |
| 20260506114007 | 42 | 292 | 2.0 | 7.0 | 0.00 | 0.01 | 0.00 | 65 | 1011.5 |
| 20260506113508 | 41 | 311 | 2.0 | 9.0 | 0.00 | 0.01 | 0.00 | 65 | 1011.3 |
| 20260506113027 | 41 | 316 | 2.0 | 9.0 | 0.00 | 0.01 | 0.00 | 65 | 1011.1 |
| 20260506112511 | 41 | 319 | 3.0 | 7.0 | 0.00 | 0.01 | 0.00 | 66 | 1011.1 |
| 20260506112011 | 41 | 313 | 2.0 | 5.0 | 0.00 | 0.01 | 0.00 | 66 | 1011.2 |
| 20260506111528 | 41 | 307 | 1.0 | 5.0 | 0.00 | 0.01 | 0.00 | 67 | 1011.1 |
| 20260506111010 | 41 | 277 | 2.0 | 4.0 | 0.00 | 0.01 | 0.00 | 67 | 1011.3 |
| 20260506110513 | 41 | 287 | 2.0 | 4.0 | 0.00 | 0.01 | 0.00 | 67 | 1011.3 |
| 20260506110028 | 41 | 291 | 0.0 | 4.0 | 0.00 | 0.01 | 0.00 | 67 | 1011.2 |
| 20260506105511 | 41 | 304 | 2.0 | 4.0 | 0.00 | 0.01 | 0.00 | 67 | 1011.1 |
| 20260506105007 | 41 | 298 | 0.0 | 0.0 | 0.00 | 0.01 | 0.00 | 67 | 1011.1 |
| 20260506104518 | 41 | 298 | 0.0 | 2.0 | 0.00 | 0.01 | 0.00 | 67 | 1010.9 |
| 20260506104007 | 41 | 298 | 0.0 | 2.0 | 0.00 | 0.01 | 0.00 | 66 | 1011.0 |
| 20260506103506 | 42 | 298 | 0.0 | 2.0 | 0.00 | 0.01 | 0.00 | 65 | 1011.0 |
| 20260506103031 | 42 | 315 | 0.0 | 4.0 | 0.00 | 0.01 | 0.00 | 64 | 1010.8 |
| 20260506102508 | 42 | 316 | 1.0 | 4.0 | 0.00 | 0.01 | 0.00 | 62 | 1010.6 |
| 20260506102011 | 42 | 336 | 0.0 | 3.0 | 0.00 | 0.01 | 0.00 | 62 | 1010.6 |
| 20260506101537 | 43 | 287 | 1.0 | 3.0 | 0.00 | 0.01 | 0.00 | 62 | 1010.5 |
| 20260506101014 | 43 | 318 | 0.0 | 5.0 | 0.00 | 0.01 | 0.00 | 61 | 1010.5 |
| 20260506100507 | 43 | 325 | 1.0 | 5.0 | 0.00 | 0.01 | 0.00 | 61 | 1010.4 |
| 20260506100033 | 43 | 290 | 1.0 | 5.0 | 0.00 | 0.01 | 0.00 | 61 | 1010.5 |
| 20260506095511 | 43 | 294 | 3.0 | 5.0 | 0.00 | 0.01 | 0.00 | 60 | 1010.5 |
| 20260506095006 | 44 | 290 | 1.0 | 6.0 | 0.00 | 0.01 | 0.00 | 61 | 1010.5 |
| 20260506094516 | 44 | 306 | 1.0 | 7.0 | 0.00 | 0.01 | 0.00 | 61 | 1010.5 |
| 20260506094006 | 44 | 331 | 2.0 | 7.0 | 0.00 | 0.01 | 0.00 | 61 | 1010.7 |
| 20260506093507 | 44 | 304 | 2.0 | 5.0 | 0.00 | 0.01 | 0.00 | 60 | 1010.6 |
| 20260506093024 | 44 | 317 | 1.0 | 7.0 | 0.00 | 0.01 | 0.00 | 61 | 1010.7 |
| 20260506092509 | 44 | 333 | 2.0 | 7.0 | 0.00 | 0.01 | 0.00 | 61 | 1010.7 |
| 20260506092011 | 44 | 347 | 1.0 | 4.0 | 0.00 | 0.01 | 0.00 | 61 | 1010.6 |
| 20260506091510 | 44 | 316 | 2.0 | 5.0 | 0.00 | 0.01 | 0.00 | 62 | 1010.4 |
| 20260506091004 | 44 | 17 | 1.0 | 5.0 | 0.00 | 0.01 | 0.00 | 61 | 1010.1 |
| 20260506090502 | 45 | 333 | 1.0 | 7.0 | 0.00 | 0.01 | 0.00 | 61 | 1010.1 |
| 20260506090007 | 45 | 299 | 3.0 | 7.0 | 0.00 | 0.01 | 0.00 | 61 | 1010.0 |
| 20260506085503 | 45 | 300 | 2.0 | 5.0 | 0.00 | 0.01 | 0.00 | 61 | 1010.1 |
| 20260506085010 | 45 | 299 | 1.0 | 8.0 | 0.00 | 0.01 | 0.00 | 61 | 1010.0 |
| 20260506084523 | 45 | 306 | 2.0 | 8.0 | 0.00 | 0.01 | 0.00 | 61 | 1009.9 |
| 20260506084007 | 45 | 320 | 3.0 | 8.0 | 0.00 | 0.01 | 0.00 | 61 | 1009.9 |
| 20260506083510 | 45 | 318 | 1.0 | 9.0 | 0.00 | 0.01 | 0.00 | 61 | 1009.7 |
| 20260506083025 | 45 | 339 | 3.0 | 9.0 | 0.00 | 0.01 | 0.00 | 60 | 1009.7 |
| 20260506082508 | 45 | 350 | 3.0 | 8.0 | 0.00 | 0.01 | 0.00 | 60 | 1009.9 |
| 20260506082007 | 45 | 286 | 3.0 | 8.0 | 0.00 | 0.01 | 0.00 | 60 | 1010.0 |
| 20260506081527 | 45 | 316 | 4.0 | 8.0 | 0.00 | 0.01 | 0.00 | 60 | 1009.9 |
| 20260506081010 | 45 | 360 | 3.0 | 9.0 | 0.00 | 0.01 | 0.00 | 61 | 1009.8 |
| 20260506080504 | 45 | 17 | 2.0 | 9.0 | 0.00 | 0.01 | 0.00 | 60 | 1009.8 |
| 20260506073509 | 46 | 290 | 3.0 | 10.0 | 0.00 | 0.01 | 0.00 | 59 | 1009.8 |
| 20260506073018 | 46 | 288 | 4.0 | 9.0 | 0.00 | 0.01 | 0.00 | 59 | 1009.9 |
| 20260506072509 | 46 | 310 | 3.0 | 9.0 | 0.00 | 0.01 | 0.00 | 59 | 1010.0 |
| 20260506072012 | 46 | 312 | 2.0 | 9.0 | 0.00 | 0.01 | 0.00 | 59 | 1010.0 |
| 20260506071526 | 46 | 306 | 4.0 | 9.0 | 0.00 | 0.01 | 0.00 | 59 | 1010.2 |
| 20260506071010 | 46 | 303 | 1.0 | 8.0 | 0.00 | 0.01 | 0.00 | 59 | 1010.1 |
| 20260506070509 | 46 | 296 | 2.0 | 8.0 | 0.00 | 0.01 | 0.00 | 60 | 1010.1 |